Flag for Latvia Weather past 2 weeks in Liepāja, Latvia

Now
61 °F

Passing clouds.


Feels Like: 61 °F
Forecast: 57 / 64 °F
Wind: 8 mph from Northwest

Location: Liepaja International Airport

Current Time: Aug 28, 2014 at 4:42:43 AM

Latest Report: Aug 28, 2014 at 4:20 AM


Visibility: N/A

Pressure: 29.74 "Hg

Humidity: 72%

Dew point: 52 °F

Location of LiepājaLocation

Historic Weather in Liepāja — Graph

°F

Liepāja temperature yesterday

Maximum temperature yesterday: 63 °F (at 11:20 AM)
Minimum temperature yesterday: 55 °F (at 2:50 AM)
Average temperature yesterday: 59 °F

Past Weeks' High & Low Weather Summary

 TemperatureHumidityPressure
High72 °F (Aug 13, 2:20 PM)100% (Aug 14, 12:50 PM)29.92 "Hg (Aug 14, 12:50 PM)
Low46 °F (Aug 25, 5:50 AM)44% (Aug 13, 7:20 PM)29.47 "Hg (Aug 14, 12:50 PM)
Average60 °F81%29.71 "Hg
* Reported Aug 13 3:20 AM — Aug 28 3:20 AM, Liepāja, Weather by CustomWeather, © 2014

Note: Actual official high and low records may vary slightly from our data, if they occured in-between our weather recording intervals... More about our weather records

Advertising

Liepāja weather history for previous 24 hours

 ConditionsComfort  
Time TempWeatherWind HumidityBarometerVisibility
3:20 AM
Aug 28
61 °FPassing clouds.8 mph72%29.74 "HgN/A
2:50 AM61 °FPassing clouds.6 mph72%29.74 "HgN/A
2:20 AM61 °FPassing clouds.8 mph72%29.74 "HgN/A
1:50 AM61 °FPassing clouds.9 mph72%29.74 "HgN/A
1:20 AM61 °FPassing clouds.9 mph72%29.74 "HgN/A
12:50 AM61 °FPassing clouds.7 mph72%29.74 "HgN/A
12:20 AM61 °FPassing clouds.8 mph72%29.74 "HgN/A
11:50 PM
Aug 27
61 °FPassing clouds.8 mph72%29.74 "HgN/A
11:20 PM61 °FPassing clouds.7 mph72%29.74 "HgN/A
10:50 PM59 °FPassing clouds.5 mph77%29.74 "HgN/A
10:20 PM59 °FPassing clouds.5 mph82%29.74 "HgN/A
9:50 PM59 °FSunny.2 mph82%29.74 "Hg10 mi
8:50 PM59 °FPassing clouds.3 mph77%29.74 "HgN/A
8:20 PM61 °FBroken clouds.5 mph72%29.74 "HgN/A
7:20 PM61 °FPartly sunny.6 mph77%29.71 "HgN/A
6:50 PM61 °FPartly sunny.7 mph77%29.71 "HgN/A
5:50 PM61 °FOvercast.8 mph77%29.71 "HgN/A
5:20 PM61 °FOvercast.8 mph72%29.71 "HgN/A
4:50 PM61 °FMostly cloudy.8 mph77%29.71 "HgN/A
4:20 PM61 °FMore clouds than sun.9 mph77%29.68 "HgN/A
3:50 PM61 °FBroken clouds.9 mph77%29.68 "HgN/A
3:20 PM61 °FBroken clouds.8 mph77%29.68 "HgN/A
2:50 PM61 °FOvercast.8 mph77%29.68 "HgN/A
2:20 PM61 °FBroken clouds.9 mph77%29.65 "HgN/A
1:20 PM61 °FMore clouds than sun.8 mph83%29.65 "HgN/A
12:50 PM63 °FPartly sunny.8 mph77%29.62 "HgN/A
12:20 PM61 °FPartly sunny.7 mph83%29.62 "HgN/A
11:50 AM61 °FPartly sunny.9 mph83%29.62 "HgN/A
11:20 AM63 °FPartly sunny.8 mph83%29.59 "HgN/A
10:50 AM61 °FPartly sunny.7 mph83%29.59 "HgN/A
10:20 AM61 °FBroken clouds.9 mph83%29.56 "HgN/A
9:50 AM61 °FPartly sunny.7 mph88%29.56 "HgN/A
9:20 AM59 °FPartly sunny.6 mph94%29.56 "HgN/A
8:50 AM59 °FBroken clouds.6 mph94%29.53 "HgN/A
8:20 AM59 °FPassing clouds.3 mph94%29.53 "HgN/A
7:50 AM59 °FMostly cloudy.5 mph94%29.53 "HgN/A
7:20 AM59 °FMostly cloudy.No wind94%29.50 "HgN/A
6:50 AM57 °FLight rain. Partly cloudy.3 mph100%29.50 "Hg4 mi
6:20 AM57 °FLight rain. Passing clouds.No wind94%29.50 "HgN/A
5:50 AM57 °FPassing clouds.1 mph94%29.50 "HgN/A
5:20 AM57 °FPartly cloudy.6 mph100%29.50 "HgN/A
4:50 AM57 °FPassing clouds.12 mph94%29.50 "HgN/A
4:20 AM55 °FMostly cloudy.15 mph94%29.50 "HgN/A
Weather by CustomWeather, © 2014

See weather overviewHow to use our weather pages